Washington, NC

5:22 PM EST on January 17, 2018 (GMT -0500)
Warren

Weather History for KOCW - January, 2013

Change the Weather History Date:

Sunday, January 27, 2013

  Actual Average (KPGV) Record (KPGV)
Temperature  
Mean Temperature 32 °F -  
Max Temperature 40 °F 53 °F 76 °F (1962)
Min Temperature 25 °F 29 °F 9 °F (1940)
Degree Days  
Heating Degree Days 32    
Moisture  
Dew Point 25 °F    
Average Humidity 77    
Maximum Humidity 83    
Minimum Humidity 58    
Precipitation  
Precipitation 0.06 in - - ()
Sea Level Pressure  
Sea Level Pressure 30.53 in    
Wind  
Wind Speed 3 mph (NNE)    
Max Wind Speed 8 mph    
Max Gust Speed -    
Visibility 7 miles    
Events      
Averages and records for this station are not official NWS values.
T = Trace of Precipitation, MM = Missing Value Source: NWS Daily Summary

Daily Weather History Graph

Daily Weather History Graph

Search for Another Location

Airport or City:

Trip Planner

Search our weather history database for the weather conditions in past years. The results will help you decide how hot, cold, wet, or windy it might be!

Date:

Astronomy

Jan. 27, 2013 Rise Set
Actual Time 7:11 AM EST 5:31 PM EST
Civil Twilight 6:44 AM EST 5:58 PM EST
Nautical Twilight 6:13 AM EST 6:28 PM EST
Astronomical Twilight 5:43 AM EST 6:59 PM EST
Moon 6:19 PM EST (1/27) 7:06 AM EST (1/27)
Length of Visible Light 11h 13m
Length of Day
10h 19m
Full, 100% of the Moon is Illuminated
Jan 27
Full
Feb 3
Last Quarter
Feb 10
New
Feb 17
First Quarter
Feb 25
Full

Hourly Weather History & Observations

Time (EST) Temp. Windchill Dew Point Humidity Pressure Visibility Wind Dir Wind Speed Gust Speed Precip Events Conditions
12:15 AM 30.2 °F 23.4 °F 25.0 °F 81% 30.43 in 1.2 mi North 6.9 mph - N/A   Haze
12:35 AM 28.9 °F 22.8 °F 23.9 °F 81% 30.42 in 1.2 mi North 5.8 mph - N/A   Haze
12:55 AM 28.9 °F 21.9 °F 23.9 °F 81% 30.42 in 2.0 mi NNE 6.9 mph - N/A   Haze
1:15 AM 28.9 °F 25.2 °F 23.9 °F 81% 30.42 in 2.5 mi North 3.5 mph - N/A   Haze
1:35 AM 29.5 °F 23.4 °F 24.4 °F 81% 30.44 in 3.0 mi North 5.8 mph - N/A   Haze
1:55 AM 28.9 °F 23.9 °F 24.1 °F 82% 30.45 in 4.0 mi North 4.6 mph - N/A   Haze
2:15 AM 28.6 °F 23.5 °F 23.5 °F 81% 30.45 in 4.0 mi NNE 4.6 mph - N/A   Haze
2:35 AM 29.1 °F 25.4 °F 23.9 °F 81% 30.46 in 4.0 mi NNW 3.5 mph - N/A   Haze
2:55 AM 29.5 °F 24.5 °F 24.6 °F 82% 30.46 in 4.0 mi North 4.6 mph - N/A   Haze
3:15 AM 28.0 °F 22.8 °F 23.0 °F 81% 30.47 in 4.0 mi North 4.6 mph - N/A   Haze
3:35 AM 28.4 °F - 23.4 °F 81% 30.47 in 3.0 mi Calm Calm - N/A   Haze
3:55 AM 28.6 °F - 23.5 °F 81% 30.47 in 3.0 mi Calm Calm - N/A   Haze
4:15 AM 28.4 °F - 23.4 °F 81% 30.47 in 3.0 mi Calm Calm - N/A   Haze
4:35 AM 27.7 °F 23.8 °F 22.6 °F 81% 30.47 in 3.0 mi North 3.5 mph - N/A   Haze
4:55 AM 27.5 °F - 22.8 °F 83% 30.48 in 3.0 mi Calm Calm - N/A   Overcast
5:15 AM 27.5 °F - 22.8 °F 83% 30.48 in 3.0 mi Calm Calm - N/A   Overcast
5:35 AM 27.5 °F - 22.8 °F 83% 30.49 in 3.0 mi Calm Calm - N/A   Overcast
5:55 AM 27.5 °F - 22.8 °F 83% 30.49 in 2.0 mi Calm Calm - N/A   Overcast
6:15 AM 27.0 °F - 21.9 °F 81% 30.49 in 1.5 mi Calm Calm - N/A   Haze
6:35 AM 26.4 °F - 21.2 °F 81% 30.50 in 1.0 mi Calm Calm - N/A   Haze
6:55 AM 25.7 °F - 21.0 °F 82% 30.51 in 1.0 mi Calm Calm - N/A   Haze
7:15 AM 25.7 °F - 21.0 °F 82% 30.52 in 0.5 mi Calm Calm - N/A   Haze
7:35 AM 25.3 °F - 20.3 °F 81% 30.53 in 0.2 mi Calm Calm - N/A   Haze
7:55 AM 25.2 °F - 20.3 °F 82% 30.54 in 1.5 mi Calm Calm - N/A   Haze
8:15 AM 26.1 °F - 21.2 °F 82% 30.55 in 2.5 mi Calm Calm - N/A   Haze
8:35 AM 27.5 °F 23.6 °F 22.6 °F 82% 30.57 in 3.0 mi NNW 3.5 mph - N/A   Haze
8:55 AM 29.3 °F 25.6 °F 24.3 °F 81% 30.57 in 5.0 mi North 3.5 mph - N/A   Haze
9:15 AM 30.4 °F 26.9 °F 25.3 °F 82% 30.58 in 5.0 mi North 3.5 mph - N/A   Haze
9:35 AM 32.5 °F 28.1 °F 27.5 °F 82% 30.60 in 10.0 mi NNE 4.6 mph - 0.02 in   Clear
9:55 AM 32.5 °F 27.1 °F 27.3 °F 81% 30.60 in 10.0 mi NNE 5.8 mph - 0.02 in   Clear
10:15 AM 33.8 °F 28.6 °F 28.6 °F 81% 30.60 in 10.0 mi NNE 5.8 mph - N/A   Clear
10:35 AM 34.5 °F 29.4 °F 28.6 °F 79% 30.61 in 10.0 mi NNE 5.8 mph - 0.02 in   Clear
10:55 AM 35.2 °F 30.3 °F 29.1 °F 78% 30.61 in 10.0 mi NNE 5.8 mph - 0.04 in   Clear
11:15 AM 35.8 °F 31.9 °F 29.3 °F 77% 30.60 in 10.0 mi NE 4.6 mph - N/A   Clear
11:35 AM 37.6 °F 33.1 °F 30.2 °F 75% 30.60 in 10.0 mi ENE 5.8 mph - N/A   Clear
11:55 AM 37.6 °F 31.6 °F 29.8 °F 74% 30.58 in 10.0 mi ENE 8.1 mph - N/A   Clear
12:15 PM 37.6 °F 31.6 °F 29.7 °F 73% 30.58 in 10.0 mi NE 8.1 mph - N/A   Clear
12:35 PM 37.6 °F 32.3 °F 28.9 °F 71% 30.58 in 10.0 mi NE 6.9 mph - N/A   Clear
12:55 PM 37.6 °F 31.6 °F 27.1 °F 66% 30.57 in 10.0 mi NE 8.1 mph - N/A   Clear
1:15 PM 37.8 °F 32.5 °F 27.3 °F 66% 30.57 in 10.0 mi NE 6.9 mph - N/A   Scattered Clouds
1:35 PM 37.9 °F 32.7 °F 27.7 °F 67% 30.55 in 10.0 mi ENE 6.9 mph - N/A   Scattered Clouds
1:55 PM 37.6 °F 33.1 °F 26.1 °F 63% 30.54 in 10.0 mi North 5.8 mph - N/A   Scattered Clouds
2:15 PM 38.5 °F 35.0 °F 26.4 °F 62% 30.54 in 10.0 mi East 4.6 mph - N/A   Scattered Clouds
2:35 PM 38.8 °F 33.2 °F 27.0 °F 62% 30.54 in 10.0 mi NNE 8.1 mph - N/A   Scattered Clouds
2:55 PM 38.8 °F 35.4 °F 26.2 °F 61% 30.54 in 10.0 mi East 4.6 mph - N/A   Scattered Clouds
3:15 PM 39.0 °F - 26.8 °F 62% 30.55 in 10.0 mi Calm Calm - N/A   Scattered Clouds
3:55 PM 40.1 °F 38.0 °F 26.2 °F 58% 30.55 in 10.0 mi North 3.5 mph - N/A   Clear
4:15 PM 40.1 °F 38.0 °F 26.4 °F 58% 30.56 in 10.0 mi North 3.5 mph - N/A   Scattered Clouds
4:35 PM 39.2 °F - 25.7 °F 58% 30.56 in 10.0 mi Calm Calm - N/A   Scattered Clouds
4:55 PM 37.6 °F - 25.3 °F 61% 30.56 in 10.0 mi Calm Calm - N/A   Scattered Clouds
5:15 PM 37.6 °F - 26.8 °F 65% 30.56 in 10.0 mi Calm Calm - N/A   Clear
5:35 PM 37.6 °F - 29.3 °F 72% 30.56 in 10.0 mi Calm Calm - N/A   Clear
5:55 PM 34.7 °F - 28.2 °F 77% 30.56 in 10.0 mi Calm Calm - N/A   Clear
6:15 PM 33.8 °F - 27.5 °F 78% 30.57 in 10.0 mi Calm Calm - N/A   Clear
6:55 PM 32.5 °F - 27.5 °F 82% 30.58 in 10.0 mi Calm Calm - N/A   Clear
7:15 PM 32.5 °F - 27.5 °F 82% 30.58 in 10.0 mi Calm Calm - N/A   Clear
7:35 PM 32.5 °F - 27.5 °F 82% 30.58 in 10.0 mi Calm Calm - N/A   Clear
7:55 PM 32.5 °F - 27.5 °F 82% 30.57 in 10.0 mi Calm Calm - N/A   Clear
8:15 PM 31.8 °F - 26.8 °F 82% 30.57 in 10.0 mi Calm Calm - N/A   Clear
8:35 PM 32.5 °F - 27.9 °F 83% 30.57 in 10.0 mi Calm Calm - N/A   Clear
8:55 PM 30.2 °F - 25.2 °F 82% 30.56 in 10.0 mi Calm Calm - N/A   Clear
9:15 PM 30.2 °F - 25.2 °F 82% 30.55 in 10.0 mi Calm Calm - N/A   Clear
9:35 PM 30.2 °F - 25.2 °F 82% 30.56 in 10.0 mi Calm Calm - N/A   Clear
9:55 PM 29.7 °F 26.1 °F 24.6 °F 81% 30.56 in 7.0 mi NNE 3.5 mph - N/A   Clear
10:15 PM 27.3 °F - 22.6 °F 83% 30.56 in 10.0 mi Calm Calm - N/A   Clear
10:35 PM 28.9 °F - 24.1 °F 82% 30.55 in 10.0 mi Calm Calm - N/A   Clear
10:55 PM 27.7 °F - 22.8 °F 82% 30.55 in 10.0 mi Calm Calm - N/A   Clear
11:15 PM 27.5 °F - 22.8 °F 83% 30.53 in 7.0 mi Calm Calm - N/A   Clear
11:35 PM 27.9 °F - 23.0 °F 82% 30.54 in 7.0 mi Calm Calm - N/A   Clear
11:55 PM 27.5 °F - 22.8 °F 83% 30.53 in 7.0 mi Calm Calm - N/A   Clear